Regional Weather Roundup
Issued by NWS Green Bay, WI

Home | Current Version | Previous Version | Text Only | Print | Product List | Glossary On
Versions: 1 2 3 4 5 6 7 8 9 10 11 12 13 14 15 16 17 18 19 20 21 22 23 24 25 26 27 28 29 30 31 32 33 34 35 36 37 38 39 40 41 42 43 44 45 46 47 48 49 50
000
ASUS43 KGRB 250411
RWRGRB

NORTH-CENTRAL AND NORTHEAST WISCONSIN REGIONAL WEATHER ROUNDUP
NATIONAL WEATHER SERVICE GREEN BAY WI
1000 PM CST SAT FEB 24 2018

WIZ005-009-010>012-018-019-250500-
NORTH CENTRAL WISCONSIN

CITY           SKY/WX    TMP DP  RH WIND       PRES   REMARKS
IRONWOOD       SNOW      28  27  93 S7        29.52S VSB 1/2
MANITOWISH WTR LGT SNOW  27  27 100 SE10G16   29.48F
ARBOR VITAE    MIX PCPN  29  27  91 SE17G30   29.47F
EAGLE RIVER    LGT SNOW  28  25  89 SE12G23   29.48F
LAND O LAKES   SNOW      28  26  92 SE17G24   29.49F VSB 1/2
RHINELANDER    MIX PCPN  29  26  89 SE22G31   29.47F
PHILLIPS       LGT SNOW  28  28  99 SE7       29.47F
ANTIGO         MIX PCPN  29  28  97 SE22G31   29.50F
TOMAHAWK       LGT SNOW  29  26  90 SE5       29.48F
MERRILL        LGT SNOW  30  29  94 SE13G22   29.49F VSB 3/4
$$

WIZ013-073-250500-
NORTHEAST WISCONSIN

CITY           SKY/WX    TMP DP  RH WIND       PRES   REMARKS
IRON MOUNTAIN  LGT SNOW  29  26  89 E13G21    29.55F VSB 1
MARINETTE      LGT SNOW  33  30  88 E17       29.62F FOG
OCONTO         CLOUDY    32  31  96 E15G22    29.59F
$$

WIZ017-030-035>037-045-250500-
CENTRAL WISCONSIN

CITY           SKY/WX    TMP DP  RH WIND       PRES   REMARKS
MEDFORD        LGT SNOW  29  27  94 SE10      29.47F VSB 1
WAUSAU         MIX PCPN  32  30  92 SE15G25   29.46F FOG
MOSINEE        FRZ RAIN  32  30  93 SE15G22   29.49F
MARSHFIELD     LGT SNOW  32  31  96 SE9       29.46F VSB 3/4
WISC RAPIDS    LGT SNOW  33  30  88 SE10      29.48F FOG
STEVENS POINT  MIX PCPN  31  31 100 SE9       29.50F
WAUPACA        LGT RAIN  35  32  90 E12       29.52F
SHAWANO        LGT RAIN  34  32  91 E10G17    29.56F
CLINTONVILLE   MIX PCPN  33  32  94 E12       29.53F
WAUTOMA        LGT SNOW  33  32  96 E6        29.50F FOG
$$

WIZ038-039-048-051-250500-
FOX VALLEY

CITY           SKY/WX    TMP DP  RH WIND       PRES   REMARKS
NWS GREEN BAY  HVY RAIN  34  30  85 E14G24    29.56F FOG
APPLETON       LGT RAIN  34  32  93 E17G26    29.52F
OSHKOSH        CLOUDY    35  33  92 SE21G26   29.50F
FOND DU LAC    LGT RAIN  36  32  85 SE23G36   29.48F
$$

WIZ022-050-052-250500-
EAST CENTRAL WISCONSIN

CITY           SKY/WX    TMP DP  RH WIND       PRES   REMARKS
EPHRAIM        LGT SNOW  31  30  94 SE17G24   29.61F
WASHINGTON ISL LGT RAIN  32  29  88 E16G24    29.65F
STURGEON BAY   MIX PCPN  32  30  92 SE15G23   29.62F
MANITOWOC      LGT RAIN  33  33 100 SE16      29.59F FOG
SHEBOYGAN      LGT RAIN  35  35 100 SE18G29   29.56F FOG
$$

LMZ563-521-522-541>543-250500-
LAKESHORE

STATION/POSITION TIME  TEMP    WIND        PRES    VSBY  WAVE
                       AIR SEA DIR/SP/G                  HT/PER
                 (UTC) (F)     (DEG/KT/KT) (MB)    (MI)  (FT/S)
SHEBOYGAN LKSHOR 0400   35     120/ 18/ 19 1001.8F
KEWAUNEE LKSHORE 0342   33     120/ 14/ 17 1003.3F
NORTHPORT PIER   0340   33                 1004.4F
SISTER BAY LKSHO 0320   33     130/ 13/ 18   N/A
MENOMINEE LKSHOR 0342   33     100/ 14/ 26 1004.1F
$$



USA.gov is the U.S. government's official web portal to all federal, state and local government web resources and services.